Regional Weather Roundup
Issued by NWS Newport/Morehead, NC

Current Version | Previous Version | Graphics & Text | Print | Product List | Glossary Off
Versions: 1 2 3 4 5 6 7 8 9 10 11 12 13 14 15 16 17 18 19 20 21 22 23 24 25 26 27 28 29 30 31 32 33 34 35 36 37 38 39 40 41 42 43 44 45 46 47 48 49 50

347
ASUS42 KMHX 241214
RWRMHX
WEATHER ROUNDUP FOR EASTERN NORTH CAROLINA
NATIONAL WEATHER SERVICE NEWPORT/MOREHEAD CITY NC
800 AM EDT MON JUL 24 2017

NOTE: "FAIR" INDICATES FEW OR NO CLOUDS BELOW 12,000 FEET
WITH NO SIGNIFICANT WEATHER AND/OR OBSTRUCTIONS TO VISIBILITY

NCZ015>017-031-032-045>047-102-103-241300-
NORTH COAST

CITY           SKY/WX    TMP DP  RH WIND       PRES   REMARKS
EDENTON        SUNNY     78  73  84 SW12G17   29.88S
ELIZABETH CITY SUNNY     78  76  93 S13       29.85F
KITTY HAWK     MOSUNNY   79  73  82 SW12G20   29.87S
MANTEO         MOSUNNY   78  74  85 W15       29.88S

$$

NCZ045>047-081-094-103-104-241300-
CENTRAL COAST

CITY           SKY/WX    TMP DP  RH WIND       PRES   REMARKS
FRISCO         MOSUNNY   80  75  84 W9        29.92R

$$

NCZ095-097-098-100-101-241300-
SOUTHERN COAST

CITY           SKY/WX    TMP DP  RH WIND       PRES   REMARKS
BEAUFORT       PTSUNNY   82  79  90 SW13      29.92S
CEDAR ISLAND   NOT AVBL
JACKSONVILLE   CLOUDY    79  76  90 SW8       29.93R
PINEY ISLAND   MOSUNNY  N/A N/A N/A SW12      29.91S
WILMINGTON     CLOUDY    79  75  87 SW13      29.95R


$$

NCZ011>013-027>030-043-044-078>080-089-090>093-098-241300-
COASTAL PLAIN

CITY           SKY/WX    TMP DP  RH WIND       PRES   REMARKS
AHOSKIE          N/A     72  71  98 S3        29.86S
CLINTON        MOSUNNY   74  74  98 SW5       29.93R
ELIZABETHTOWN  NOT AVBL
GOLDSBORO      MOSUNNY   76  76 100 SW10      29.89R
GREENVILLE     CLOUDY    73  72  94 SW9       29.91R
HAVELOCK       PTSUNNY   81  76  84 SW12      29.93S
KENANSVILLE    SUNNY     73  72  94 SW6       29.92S
KINSTON        CLOUDY    75  72  88 SW9       29.91S
NEW BERN       CLOUDY    79  76  90 SW8       29.93R
RICHLANDS      CLOUDY    78  74  87 SW9       29.93R
ROCKY MOUNT    PTSUNNY   73  73 100 SW6       29.89R
WASHINGTON     CLOUDY    75  71  87 SW6       29.90S
WHITEVILLE     CLOUDY    77  74  93 CALM      29.93S

$$

AMZ130-135-150-152-154-156-158-170-250-252-270-ANZ085-086-088-633-658-670-241300-
MARINE OBSERVATIONS

STATION/POSITION TIME  TEMP    WIND        PRES    WAVE   SWELL
                       AIR SEA DIR/SP/G            HT/PER HT/PER
                 (UTC) (F)     (DEG/KT/KT) (MB)    (FT/S) (FT/S)
CHESAPEAKE LIGHT NOT AVBL
64 E VA BEACH    1150   78 79  240/ 10/ 12 1011.2    4/ 7   3/ 7
DUCK             1148   78 61  240/ 18/ 22 1011.0
2 E DUCK         1200      63                N/A     2/11
OREGON INLET     1148          240/ 19/ 22   N/A
13E OREGON INLT  1148      75                N/A     4/ 7   2/ 7
HATTERAS CG      1148   79 77  240/ 11/ 15 1012.8
DIAMOND BUOY     1150   83 84  240/ 23/ 27 1012.5    8/ 8
CAPE LOOKOUT     1200   80     230/ 11/ 15 1013.1
BEAUFORT LAB     1148   80 79  230/  6/ 11 1012.6
30 SE NEW RVR IN 1108   80 81  240/ 17/ 23 1013.5
30 SE NEW RVR IN 1143      81                N/A     8/ 7   2/22
27 SE WRIGHTSVLE 1108   81 83  220/ 17/ 23 1013.3
5 SE WRIGHTSVLE  1108   80 80  230/ 12/ 17 1013.4
225 S CAPE HAT   1150   83 83  220/ 17/ 21 1017.2    6/ 7
41 SE CHARLESTON 1150   81 83  230/ 19/ 23 1014.3    5/ 6   2/ 8

$$




USA.gov is the U.S. government's official web portal to all federal, state and local government web resources and services.